Hourly Data Report for July 07, 2020

TORONTO CITY
ONTARIO
Current Station Operator: ECCC - MSC

43°40'00.000" N
79°24'00.000" W
112.50 m
6158355
71508
XTO

Download Data

Hourly Data (July 2020)
Hourly Data Report for July 7, 2020
TIME
LST
Temp Definition
°C
Dew Point Definition
°C
Rel Hum Definition
%
Precip. Amount Definition
mm

Wind Dir Definition
10's deg

Wind Spd Definition
km/h
Visibility Definition
km
Stn Press Definition
kPa
Hmdx Definition


Wind Chill Definition


Weather Definition


00:00 24.3 14.4 54 0.0       100.23 28   LegendNANA
01:00 23.2 14.5 58 0.0       100.24 27   LegendNANA
02:00 23.4 15.2 60 0.0       100.19 27   LegendNANA
03:00 23.3 14.7 59 0.0       100.19 27   LegendNANA
04:00 22.8 13.9 57 0.0       100.15 26   LegendNANA
05:00 23.1 13.7 56 0.0       100.17 26   LegendNANA
06:00 22.4 14.3 60 0.0       100.17 26   LegendNANA
07:00 23.9 15.6 60 0.0       100.18 28   LegendNANA
08:00 26.7 16.7 54 0.0       100.16 32   LegendNANA
09:00 27.9 15.6 47 0.0       100.17 32   LegendNANA
10:00 29.5 15.9 44 0.0       100.17 34   LegendNANA
11:00 29.6 15.5 42 0.0       100.16 34   LegendNANA
12:00 30.7 14.9 38 0.0       100.13 35   LegendNANA
13:00 32.4 14.4 34 0.0       100.10 36   LegendNANA
14:00 33.1 15.6 35 0.0       100.00 37   LegendNANA
15:00 33.3 14.1 31 0.0       99.92 37   LegendNANA
16:00 32.7 14.1 33 0.3       99.85 36   LegendNANA
17:00 31.7 15.8 38 0.5       99.86 36   LegendNANA
18:00 30.1 17.5 47 0.0       99.82 36   LegendNANA
19:00 29.9 16.5 44 0.0       99.80 35   LegendNANA
20:00 28.8 17.2 50 0.0       99.82 34   LegendNANA
21:00 28.0 19.4 60 0.0       99.85 35   LegendNANA
22:00 26.8 20.2 67 0.0       99.88 35   LegendNANA
23:00 27.4 19.8 63 0.0       99.92 35   LegendNANA

Notes on Data Quality.

Legend

  • E = Estimated
  • M = Missing
  • NA = Not Available*
  • [empty] = Indicates an unobserved value
Date modified: